Time,TemperatureF,DewpointF,PressureIn,WindDirection,WindDirectionDegrees,WindSpeedMPH,WindSpeedGustMPH,Humidity,HourlyPrecipIn,Conditions,Clouds,dailyrainin,SoftwareType,DateUTC
2013-01-13 00:03:00,51.0,49.0,30.36,West,270,10.0,13.0,94,0.00,,,-99.99,,2013-01-13 05:03:00,
2013-01-13 00:12:00,51.0,49.0,30.36,West,270,10.0,13.0,94,0.00,,,-99.99,,2013-01-13 05:12:00,
2013-01-13 00:22:00,52.0,50.0,30.36,West,273,12.0,17.0,94,0.00,,,-99.99,,2013-01-13 05:22:00,
2013-01-13 00:32:00,52.0,50.0,30.35,West,274,5.0,11.0,94,0.00,,,-99.99,,2013-01-13 05:32:00,
2013-01-13 00:42:00,52.0,50.0,30.35,West,274,5.0,11.0,94,0.00,,,-99.99,,2013-01-13 05:42:00,
2013-01-13 00:53:00,51.0,50.0,30.35,NW,312,4.0,11.0,95,0.00,,,-99.99,,2013-01-13 05:53:00,
2013-01-13 01:03:00,51.0,50.0,30.35,West,274,5.0,17.0,95,0.00,,,-99.99,,2013-01-13 06:03:00,
2013-01-13 01:12:00,51.0,50.0,30.35,SSW,204,9.0,14.0,95,0.00,,,-99.99,,2013-01-13 06:12:00,
2013-01-13 01:22:00,51.0,50.0,30.35,SSW,204,9.0,14.0,95,0.00,,,-99.99,,2013-01-13 06:22:00,
2013-01-13 01:32:00,51.0,50.0,30.35,SW,236,4.0,13.0,96,0.00,,,-99.99,,2013-01-13 06:32:00,
2013-01-13 01:42:00,51.0,50.0,30.35,SW,236,4.0,13.0,96,0.00,,,-99.99,,2013-01-13 06:42:00,
2013-01-13 01:52:00,51.0,50.0,30.35,WSW,256,5.0,21.0,96,0.00,,,-99.99,,2013-01-13 06:52:00,
2013-01-13 02:02:00,51.0,50.0,30.35,West,267,5.0,15.0,96,0.00,,,-99.99,,2013-01-13 07:02:00,
2013-01-13 02:12:00,51.0,50.0,30.35,West,267,5.0,15.0,96,0.00,,,-99.99,,2013-01-13 07:12:00,
2013-01-13 02:22:00,51.0,50.0,30.35,SW,226,5.0,15.0,96,0.00,,,-99.99,,2013-01-13 07:22:00,
2013-01-13 02:32:00,51.0,50.0,30.35,SW,215,3.0,12.0,96,0.00,,,-99.99,,2013-01-13 07:32:00,
2013-01-13 02:42:00,51.0,50.0,30.35,SW,215,3.0,12.0,96,0.00,,,-99.99,,2013-01-13 07:42:00,
2013-01-13 02:53:00,50.0,49.0,30.35,WSW,245,5.0,8.0,96,0.00,,,-99.99,,2013-01-13 07:53:00,
2013-01-13 03:02:00,50.0,49.0,30.34,WSW,252,5.0,13.0,96,0.00,,,-99.99,,2013-01-13 08:02:00,
2013-01-13 03:12:00,50.0,49.0,30.34,WSW,252,5.0,13.0,96,0.00,,,-99.99,,2013-01-13 08:12:00,
2013-01-13 03:22:00,50.0,49.0,30.34,WNW,287,8.0,12.0,96,0.00,,,-99.99,,2013-01-13 08:22:00,
2013-01-13 03:32:00,50.0,49.0,30.34,SW,218,6.0,10.0,96,0.00,,,-99.99,,2013-01-13 08:32:00,
2013-01-13 03:42:00,50.0,49.0,30.34,SW,218,6.0,10.0,96,0.00,,,-99.99,,2013-01-13 08:42:00,
2013-01-13 03:53:00,50.0,49.0,30.34,West,267,8.0,12.0,96,0.00,,,-99.99,,2013-01-13 08:53:00,
2013-01-13 04:02:00,50.0,49.0,30.33,SW,218,4.0,11.0,96,0.00,,,-99.99,,2013-01-13 09:02:00,
2013-01-13 04:12:00,50.0,49.0,30.32,SW,215,4.0,11.0,96,0.00,,,-99.99,,2013-01-13 09:12:00,
2013-01-13 04:22:00,50.0,49.0,30.32,SW,215,4.0,11.0,96,0.00,,,-99.99,,2013-01-13 09:22:00,
2013-01-13 04:32:00,50.0,49.0,30.32,SSW,210,3.0,10.0,96,0.00,,,-99.99,,2013-01-13 09:32:00,
2013-01-13 04:42:00,50.0,49.0,30.32,SSW,210,3.0,10.0,96,0.00,,,-99.99,,2013-01-13 09:42:00,
2013-01-13 04:52:00,50.0,49.0,30.32,South,187,11.0,11.0,96,0.00,,,-99.99,,2013-01-13 09:52:00,
2013-01-13 05:02:00,50.0,49.0,30.32,WSW,248,6.0,9.0,96,0.00,,,-99.99,,2013-01-13 10:02:00,
2013-01-13 05:12:00,50.0,49.0,30.32,WSW,248,6.0,9.0,96,0.00,,,-99.99,,2013-01-13 10:12:00,
2013-01-13 05:22:00,49.0,48.0,30.31,SSW,212,6.0,12.0,96,0.00,,,-99.99,,2013-01-13 10:22:00,
2013-01-13 05:32:00,49.0,48.0,30.32,West,267,9.0,13.0,96,0.00,,,-99.99,,2013-01-13 10:32:00,
2013-01-13 05:42:00,49.0,48.0,30.32,West,267,9.0,13.0,96,0.00,,,-99.99,,2013-01-13 10:42:00,
2013-01-13 05:53:00,49.0,48.0,30.31,NW,308,6.0,10.0,96,0.00,,,-99.99,,2013-01-13 10:53:00,
2013-01-13 06:02:00,49.0,48.0,30.31,South,186,1.0,12.0,96,0.00,,,-99.99,,2013-01-13 11:02:00,
2013-01-13 06:12:00,49.0,48.0,30.29,SSW,200,4.0,10.0,96,0.00,,,-99.99,,2013-01-13 11:12:00,
2013-01-13 06:22:00,49.0,48.0,30.29,SSW,200,4.0,10.0,96,0.00,,,-99.99,,2013-01-13 11:22:00,
2013-01-13 06:32:00,49.0,48.0,30.29,WSW,238,6.0,10.0,96,0.00,,,-99.99,,2013-01-13 11:32:00,
2013-01-13 06:42:00,49.0,48.0,30.29,WSW,238,6.0,10.0,96,0.00,,,-99.99,,2013-01-13 11:42:00,
2013-01-13 06:53:00,49.0,48.0,30.30,WSW,249,6.0,9.0,96,0.00,,,-99.99,,2013-01-13 11:53:00,
2013-01-13 07:03:00,49.0,48.0,30.31,SSW,198,7.0,13.0,96,0.00,,,-99.99,,2013-01-13 12:03:00,
2013-01-13 07:12:00,49.0,48.0,30.31,SSW,198,7.0,13.0,96,0.00,,,-99.99,,2013-01-13 12:12:00,
2013-01-13 07:22:00,49.0,48.0,30.32,SW,222,4.0,11.0,96,0.00,,,-99.99,,2013-01-13 12:22:00,
2013-01-13 07:33:00,49.0,48.0,30.33,West,277,6.0,10.0,96,0.00,,,-99.99,,2013-01-13 12:33:00,
2013-01-13 07:42:00,49.0,48.0,30.33,West,277,6.0,10.0,96,0.00,,,-99.99,,2013-01-13 12:42:00,
2013-01-13 07:53:00,49.0,48.0,30.33,West,267,6.0,16.0,96,0.00,,,-99.99,,2013-01-13 12:53:00,
2013-01-13 08:03:00,49.0,48.0,30.34,West,269,11.0,16.0,96,0.00,,,-99.99,,2013-01-13 13:03:00,
2013-01-13 08:12:00,49.0,48.0,30.34,West,269,11.0,16.0,96,0.00,,,-99.99,,2013-01-13 13:12:00,
2013-01-13 08:22:00,49.0,48.0,30.35,WNW,291,4.0,13.0,96,0.00,,,-99.99,,2013-01-13 13:22:00,
2013-01-13 08:33:00,49.0,48.0,30.35,West,269,9.0,10.0,96,0.00,,,-99.99,,2013-01-13 13:33:00,
2013-01-13 08:42:00,49.0,48.0,30.35,West,269,9.0,10.0,96,0.00,,,-99.99,,2013-01-13 13:42:00,
2013-01-13 08:53:00,50.0,49.0,30.36,West,259,8.0,9.0,96,0.00,,,-99.99,,2013-01-13 13:53:00,
2013-01-13 09:03:00,50.0,49.0,30.36,WSW,250,5.0,8.0,96,0.00,,,-99.99,,2013-01-13 14:03:00,
2013-01-13 09:12:00,50.0,49.0,30.36,WSW,250,5.0,8.0,96,0.00,,,-99.99,,2013-01-13 14:12:00,
2013-01-13 09:22:00,50.0,49.0,30.37,WNW,287,4.0,9.0,96,0.00,,,-99.99,,2013-01-13 14:22:00,
2013-01-13 09:33:00,50.0,49.0,30.36,SW,222,6.0,9.0,96,0.00,,,-99.99,,2013-01-13 14:33:00,
2013-01-13 09:43:00,50.0,49.0,30.36,SW,222,6.0,9.0,96,0.00,,,-99.99,,2013-01-13 14:43:00,
2013-01-13 09:53:00,51.0,50.0,30.37,WSW,257,6.0,10.0,95,0.00,,,-99.99,,2013-01-13 14:53:00,
2013-01-13 10:03:00,52.0,51.0,30.37,West,274,6.0,12.0,95,0.00,,,-99.99,,2013-01-13 15:03:00,
2013-01-13 10:12:00,52.0,51.0,30.37,West,274,6.0,12.0,95,0.00,,,-99.99,,2013-01-13 15:12:00,
2013-01-13 10:23:00,53.0,52.0,30.37,West,259,6.0,8.0,95,0.00,,,-99.99,,2013-01-13 15:23:00,
2013-01-13 10:33:00,54.0,52.0,30.37,SW,221,2.0,8.0,93,0.00,,,-99.99,,2013-01-13 15:33:00,
2013-01-13 10:43:00,54.0,52.0,30.37,SW,221,2.0,8.0,93,0.00,,,-99.99,,2013-01-13 15:43:00,
2013-01-13 10:53:00,56.0,53.0,30.37,NW,325,8.0,9.0,90,0.00,,,-99.99,,2013-01-13 15:53:00,
2013-01-13 11:03:00,56.0,53.0,30.37,West,259,3.0,9.0,89,0.00,,,-99.99,,2013-01-13 16:03:00,
2013-01-13 11:12:00,56.0,53.0,30.37,West,259,3.0,9.0,89,0.00,,,-99.99,,2013-01-13 16:12:00,
2013-01-13 11:23:00,56.0,53.0,30.36,NW,311,7.0,8.0,89,0.00,,,-99.99,,2013-01-13 16:23:00,
2013-01-13 11:33:00,57.0,53.0,30.36,West,269,4.0,9.0,86,0.00,,,-99.99,,2013-01-13 16:33:00,
2013-01-13 11:43:00,57.0,53.0,30.36,West,269,4.0,9.0,86,0.00,,,-99.99,,2013-01-13 16:43:00,
2013-01-13 11:53:00,59.0,54.0,30.34,NW,318,2.0,9.0,82,0.00,,,-99.99,,2013-01-13 16:53:00,
2013-01-13 12:03:00,59.0,52.0,30.33,West,270,3.0,8.0,79,0.00,,,-99.99,,2013-01-13 17:03:00,
2013-01-13 12:12:00,59.0,52.0,30.33,West,270,3.0,8.0,79,0.00,,,-99.99,,2013-01-13 17:12:00,
2013-01-13 12:22:00,60.0,53.0,30.33,WSW,250,9.0,9.0,78,0.00,,,-99.99,,2013-01-13 17:22:00,
2013-01-13 12:33:00,59.0,52.0,30.33,WSW,257,10.0,10.0,79,0.00,,,-99.99,,2013-01-13 17:33:00,
2013-01-13 12:42:00,59.0,52.0,30.33,WSW,257,10.0,10.0,79,0.00,,,-99.99,,2013-01-13 17:42:00,
2013-01-13 12:53:00,59.0,53.0,30.32,WNW,297,3.0,5.0,80,0.00,,,-99.99,,2013-01-13 17:53:00,
2013-01-13 13:03:00,59.0,52.0,30.32,SW,215,7.0,9.0,79,0.00,,,-99.99,,2013-01-13 18:03:00,
2013-01-13 13:12:00,59.0,52.0,30.32,SW,215,7.0,9.0,79,0.00,,,-99.99,,2013-01-13 18:12:00,
2013-01-13 13:23:00,58.0,53.0,30.31,West,278,8.0,10.0,83,0.00,,,-99.99,,2013-01-13 18:23:00,
2013-01-13 13:33:00,58.0,54.0,30.32,SW,229,4.0,7.0,86,0.00,,,-99.99,,2013-01-13 18:33:00,
2013-01-13 13:43:00,58.0,54.0,30.32,SW,229,4.0,7.0,86,0.00,,,-99.99,,2013-01-13 18:43:00,
2013-01-13 13:53:00,57.0,53.0,30.31,WSW,240,5.0,9.0,88,0.00,,,-99.99,,2013-01-13 18:53:00,
2013-01-13 14:03:00,57.0,54.0,30.30,WSW,250,6.0,9.0,89,0.00,,,-99.99,,2013-01-13 19:03:00,
2013-01-13 14:12:00,57.0,54.0,30.30,WSW,250,6.0,9.0,89,0.00,,,-99.99,,2013-01-13 19:12:00,
2013-01-13 14:22:00,57.0,54.0,30.30,SW,217,5.0,6.0,90,0.00,,,-99.99,,2013-01-13 19:22:00,
2013-01-13 14:33:00,57.0,54.0,30.30,SSW,197,5.0,8.0,90,0.00,,,-99.99,,2013-01-13 19:33:00,
2013-01-13 14:43:00,57.0,54.0,30.30,SSW,197,5.0,8.0,90,0.00,,,-99.99,,2013-01-13 19:43:00,
2013-01-13 14:53:00,57.0,55.0,30.30,SSW,212,2.0,9.0,92,0.00,,,-99.99,,2013-01-13 19:53:00,
2013-01-13 15:03:00,57.0,55.0,30.31,SW,219,6.0,12.0,93,0.00,,,-99.99,,2013-01-13 20:03:00,
2013-01-13 15:12:00,57.0,55.0,30.31,SW,219,6.0,12.0,93,0.00,,,-99.99,,2013-01-13 20:12:00,
2013-01-13 15:22:00,56.0,54.0,30.31,SW,228,7.0,10.0,94,0.00,,,-99.99,,2013-01-13 20:22:00,
2013-01-13 15:33:00,56.0,54.0,30.31,WSW,252,6.0,11.0,94,0.00,,,-99.99,,2013-01-13 20:33:00,
2013-01-13 15:43:00,56.0,54.0,30.31,WSW,252,6.0,11.0,94,0.00,,,-99.99,,2013-01-13 20:43:00,
2013-01-13 15:53:00,55.0,54.0,30.32,South,180,4.0,9.0,96,0.00,,,-99.99,,2013-01-13 20:53:00,
2013-01-13 16:03:00,55.0,54.0,30.32,West,260,7.0,8.0,96,0.00,,,-99.99,,2013-01-13 21:03:00,
2013-01-13 16:12:00,55.0,54.0,30.32,West,260,7.0,8.0,96,0.00,,,-99.99,,2013-01-13 21:12:00,
2013-01-13 16:23:00,55.0,54.0,30.32,South,187,8.0,10.0,95,0.00,,,-99.99,,2013-01-13 21:23:00,
2013-01-13 16:33:00,55.0,54.0,30.32,SSW,198,7.0,10.0,95,0.00,,,-99.99,,2013-01-13 21:33:00,
2013-01-13 16:43:00,55.0,54.0,30.32,SSW,198,7.0,10.0,95,0.00,,,-99.99,,2013-01-13 21:43:00,
2013-01-13 16:53:00,54.0,53.0,30.33,South,176,2.0,8.0,96,0.00,,,-99.99,,2013-01-13 21:53:00,
2013-01-13 17:02:00,54.0,53.0,30.33,West,280,5.0,7.0,96,0.00,,,-99.99,,2013-01-13 22:02:00,
2013-01-13 17:12:00,54.0,53.0,30.33,West,280,5.0,7.0,96,0.00,,,-99.99,,2013-01-13 22:12:00,
2013-01-13 17:22:00,54.0,53.0,30.33,SW,226,3.0,9.0,96,0.00,,,-99.99,,2013-01-13 22:22:00,
2013-01-13 17:33:00,54.0,53.0,30.33,SSW,207,5.0,10.0,96,0.00,,,-99.99,,2013-01-13 22:33:00,
2013-01-13 17:43:00,54.0,53.0,30.33,SSW,207,5.0,10.0,96,0.00,,,-99.99,,2013-01-13 22:43:00,
2013-01-13 17:53:00,53.0,52.0,30.33,WSW,252,7.0,8.0,96,0.00,,,-99.99,,2013-01-13 22:53:00,
2013-01-13 18:02:00,53.0,52.0,30.33,West,274,4.0,7.0,96,0.00,,,-99.99,,2013-01-13 23:02:00,
2013-01-13 18:12:00,53.0,52.0,30.33,West,274,4.0,7.0,96,0.00,,,-99.99,,2013-01-13 23:12:00,
2013-01-13 18:23:00,53.0,52.0,30.34,WNW,283,2.0,9.0,96,0.00,,,-99.99,,2013-01-13 23:23:00,
2013-01-13 18:33:00,53.0,52.0,30.33,West,273,4.0,9.0,97,0.00,,,-99.99,,2013-01-13 23:33:00,
2013-01-13 18:42:00,53.0,52.0,30.33,West,273,4.0,9.0,97,0.00,,,-99.99,,2013-01-13 23:42:00,
2013-01-13 18:52:00,52.0,51.0,30.33,NE,53,3.0,7.0,97,0.00,,,-99.99,,2013-01-13 23:52:00,
2013-01-13 19:03:00,52.0,51.0,30.33,West,264,6.0,9.0,97,0.00,,,-99.99,,2013-01-14 00:03:00,
2013-01-13 19:12:00,52.0,51.0,30.33,West,264,6.0,9.0,97,0.00,,,-99.99,,2013-01-14 00:12:00,
2013-01-13 19:22:00,51.0,50.0,30.34,WNW,290,8.0,9.0,97,0.00,,,-99.99,,2013-01-14 00:22:00,
2013-01-13 19:33:00,51.0,50.0,30.34,SSW,195,5.0,7.0,97,0.00,,,-99.99,,2013-01-14 00:33:00,
2013-01-13 19:43:00,51.0,50.0,30.34,SSW,195,5.0,7.0,97,0.00,,,-99.99,,2013-01-14 00:43:00,
2013-01-13 19:53:00,51.0,50.0,30.33,West,269,0.0,5.0,97,0.00,,,-99.99,,2013-01-14 00:53:00,
2013-01-13 20:03:00,51.0,50.0,30.33,WSW,257,9.0,10.0,97,0.00,,,-99.99,,2013-01-14 01:03:00,
2013-01-13 20:12:00,51.0,50.0,30.33,WSW,257,9.0,10.0,97,0.00,,,-99.99,,2013-01-14 01:12:00,
2013-01-13 20:22:00,51.0,50.0,30.32,South,177,2.0,14.0,96,0.00,,,-99.99,,2013-01-14 01:22:00,
2013-01-13 20:32:00,51.0,50.0,30.32,NW,307,3.0,10.0,96,0.00,,,-99.99,,2013-01-14 01:32:00,
2013-01-13 20:42:00,51.0,50.0,30.32,NW,307,3.0,10.0,96,0.00,,,-99.99,,2013-01-14 01:42:00,
2013-01-13 20:53:00,51.0,50.0,30.33,South,181,5.0,8.0,97,0.00,,,-99.99,,2013-01-14 01:53:00,
2013-01-13 21:03:00,51.0,50.0,30.32,SW,225,9.0,9.0,97,0.00,,,-99.99,,2013-01-14 02:03:00,
2013-01-13 21:12:00,51.0,50.0,30.33,SW,225,6.0,16.0,97,0.00,,,-99.99,,2013-01-14 02:12:00,
2013-01-13 21:22:00,51.0,50.0,30.33,SW,225,6.0,16.0,97,0.00,,,-99.99,,2013-01-14 02:22:00,
2013-01-13 21:33:00,51.0,50.0,30.33,SSW,198,10.0,12.0,97,0.00,,,-99.99,,2013-01-14 02:33:00,
2013-01-13 21:42:00,51.0,50.0,30.33,SSW,198,10.0,12.0,97,0.00,,,-99.99,,2013-01-14 02:42:00,
2013-01-13 21:53:00,51.0,50.0,30.33,West,269,8.0,11.0,97,0.00,,,-99.99,,2013-01-14 02:53:00,
2013-01-13 22:02:00,51.0,50.0,30.33,WSW,246,9.0,10.0,97,0.00,,,-99.99,,2013-01-14 03:02:00,
2013-01-13 22:12:00,51.0,50.0,30.33,WSW,246,9.0,10.0,97,0.00,,,-99.99,,2013-01-14 03:12:00,
2013-01-13 22:22:00,51.0,50.0,30.33,SW,229,6.0,11.0,97,0.00,,,-99.99,,2013-01-14 03:22:00,
2013-01-13 22:32:00,52.0,51.0,30.33,West,270,8.0,13.0,96,0.00,,,-99.99,,2013-01-14 03:32:00,
2013-01-13 22:42:00,52.0,51.0,30.33,West,270,8.0,13.0,96,0.00,,,-99.99,,2013-01-14 03:42:00,
2013-01-13 22:53:00,52.0,51.0,30.33,West,263,10.0,12.0,96,0.00,,,-99.99,,2013-01-14 03:53:00,
2013-01-13 23:02:00,52.0,51.0,30.34,West,264,4.0,16.0,96,0.00,,,-99.99,,2013-01-14 04:02:00,
2013-01-13 23:12:00,52.0,51.0,30.34,West,264,4.0,16.0,96,0.00,,,-99.99,,2013-01-14 04:12:00,
2013-01-13 23:22:00,52.0,51.0,30.34,WNW,285,2.0,15.0,96,0.00,,,-99.99,,2013-01-14 04:22:00,
2013-01-13 23:32:00,52.0,51.0,30.34,SSW,194,8.0,15.0,96,0.00,,,-99.99,,2013-01-14 04:32:00,
2013-01-13 23:42:00,52.0,51.0,30.34,SSW,194,8.0,15.0,96,0.00,,,-99.99,,2013-01-14 04:42:00,
2013-01-13 23:53:00,52.0,51.0,30.33,WNW,301,5.0,11.0,96,0.00,,,-99.99,,2013-01-14 04:53:00,